Flag for U.S.A. Weather past 2 weeks in Gloucester, Massachusetts, U.S.A.

Now
71 °F

Clear.


Feels Like: 68 °F
Forecast: 69 / 80 °F
Wind: No wind

Location: Beverly Municipal Airport

Current Time: Sep 2, 2014 at 12:32:15 AM

Latest Report: Sep 1, 2014 at 11:53 PM


Visibility: 8 mi

Pressure: 29.91 "Hg

Humidity: 90%

Dew point: 68 °F

Location of GloucesterLocation

Historic Weather in Gloucester — Graph

°F

Gloucester temperature yesterday

Maximum temperature yesterday: 86 °F (at 1:53 PM)
Minimum temperature yesterday: 70 °F (at 9:53 PM)
Average temperature yesterday: 75 °F

Past Weeks' High & Low Weather Summary

 TemperatureHumidityPressure
High89 °F (Aug 27, 3:53 PM)97% (Aug 20, 5:53 AM)30.29 "Hg (Aug 20, 5:53 AM)
Low50 °F (Aug 19, 4:53 AM)36% (Aug 28, 5:53 PM)29.76 "Hg (Aug 18, 3:53 AM)
Average68 °F73%30.01 "Hg
* Reported Aug 17 10:53 PM — Sep 1 10:53 PM, Gloucester, Weather by CustomWeather, © 2014

Note: Actual official high and low records may vary slightly from our data, if they occured in-between our weather recording intervals... More about our weather records

Advertising

Gloucester weather history for previous 24 hours

 ConditionsComfort  
Time TempWeatherWind HumidityBarometerVisibility
10:53 PM
Sep 1
70 °FFog.No wind90%29.90 "Hg6 mi
9:53 PM70 °FClear.No wind93%29.91 "Hg7 mi
8:53 PM71 °FClear.No wind90%29.90 "Hg9 mi
7:53 PM73 °FSunny.3 mph88%29.90 "Hg10 mi
6:53 PM76 °FSunny.3 mph82%29.88 "Hg10 mi
5:53 PM79 °FSunny.7 mph74%29.89 "Hg10 mi
4:53 PM80 °FSunny.9 mph69%29.89 "Hg10 mi
3:53 PM82 °FPassing clouds.8 mph60%29.90 "Hg10 mi
2:53 PM79 °FBroken clouds.7 mph69%29.91 "Hg10 mi
1:53 PM86 °FMore clouds than sun.3 mph57%29.91 "Hg10 mi
12:53 PM83 °FScattered clouds.5 mph57%29.92 "Hg10 mi
11:53 AM82 °FSunny.6 mph60%29.93 "Hg10 mi
10:53 AM80 °FSunny.5 mph74%29.94 "Hg10 mi
9:53 AM76 °FSunny.3 mph82%29.95 "Hg10 mi
8:53 AM75 °FSunny.6 mph88%29.96 "Hg10 mi
7:53 AM72 °FSunny.3 mph93%29.96 "Hg9 mi
7:00 AM71 °FFog.3 mph93%29.98 "Hg6 mi
5:53 AM71 °FClear.5 mph93%29.94 "Hg9 mi
4:53 AM71 °FClear.5 mph93%29.93 "Hg8 mi
3:53 AM72 °FClear.6 mph93%29.92 "Hg9 mi
3:01 AM72 °FPassing clouds.No wind93%29.93 "Hg8 mi
1:53 AM72 °FPassing clouds.6 mph93%29.91 "Hg9 mi
12:53 AM72 °FClear.5 mph93%29.92 "Hg7 mi
Weather by CustomWeather, © 2014

See weather overviewHow to use our weather pages